This is the latest recevied weather packets stored in our database for station/object NO9B. If no packets are shown the sender has not sent any weather packets the latest 10 day(s).
| Time | Temp. | Humidity | Pressure | Rain* | Wind** | Luminosity | Snow |
|---|---|---|---|---|---|---|---|
| 1787594716 | 25° C | 47% | 1020 hPa | 0 mm | - | 637 W/m² | - |
| 1787594415 | 25° C | 45% | 1019.8 hPa | 0 mm | - | 638 W/m² | - |
| 1787594115 | 25° C | 46% | 1020 hPa | 0 mm | - | 632 W/m² | - |
| 1787593810 | 25° C | 45% | 1020 hPa | 0 mm | - | 633 W/m² | - |
| 1787593505 | 25° C | 46% | 1019.9 hPa | 0 mm | - | 636 W/m² | - |
| 1787593201 | 25° C | 46% | 1020 hPa | 0 mm | - | 634 W/m² | - |
| 1787592895 | 25° C | 49% | 1020 hPa | 0 mm | - | 629 W/m² | - |
| 1787592590 | 24.44° C | 45% | 1020.1 hPa | 0 mm | - | 628 W/m² | - |
| 1787592289 | 24.44° C | 49% | 1020.3 hPa | 0 mm | - | 625 W/m² | - |
| 1787591986 | 23.89° C | 53% | 1020 hPa | 0 mm | - | 622 W/m² | - |
| 1787591680 | 23.89° C | 52% | 1020.4 hPa | 0 mm | - | 615 W/m² | - |
| 1787591377 | 23.89° C | 51% | 1020.4 hPa | 0 mm | - | 606 W/m² | - |
| 1787591071 | 23.89° C | 52% | 1020.2 hPa | 0 mm | - | 597 W/m² | - |
| 1787590767 | 23.89° C | 50% | 1020.3 hPa | 0 mm | - | 597 W/m² | - |
| 1787590462 | 23.89° C | 53% | 1020.2 hPa | 0 mm | - | 589 W/m² | - |
| 1787590157 | 23.33° C | 54% | 1020.4 hPa | 0 mm | - | 583 W/m² | - |
| 1787589853 | 23.33° C | 52% | 1020.3 hPa | 0 mm | - | 574 W/m² | - |
| 1787589549 | 22.78° C | 51% | 1020.3 hPa | 0 mm | - | 569 W/m² | - |
| 1787589249 | 22.78° C | 53% | 1020.4 hPa | 0 mm | - | 563 W/m² | - |
| 1787588945 | 22.78° C | 55% | 1020.3 hPa | 0 mm | - | 55 W/m² | - |
| 1787588641 | 22.22° C | 53% | 1020.4 hPa | 0 mm | - | 34 W/m² | - |
| 1787588335 | 21.67° C | 56% | 1020.3 hPa | 0 mm | - | 33 W/m² | - |
| 1787588031 | 21.67° C | 55% | 1020.6 hPa | 0 mm | - | 33 W/m² | - |
| 1787587727 | 21.67° C | 59% | 1020.5 hPa | 0 mm | - | 33 W/m² | - |
| 1787587427 | 21.67° C | 57% | 1020.4 hPa | 0 mm | - | 31 W/m² | - |
* Rain latest hour (hover to see other rain measurements)
** Current wind speed in m/s (hover to see current wind gust speed)